Hourly Data Report for January 02, 2018

All times are specified in Local Standard Time (LST). Add 1 hour to adjust for Daylight Saving Time where and when it is observed.

HAMILTON A
ONTARIO

43°10'25.000" N
79°56'06.000" W
237.70 m
6153193
71263
YHM

Download Data

Hourly Data (January 2018)
Hourly Data Report for January 2, 2018
Temp Definition
°C
Dew Point Temp Definition
°C
Rel Hum Definition
%
Wind Dir Definition
10's deg

Wind Spd Definition
km/h
Visibility Definition
km
Stn Press Definition
kPa
Hmdx Definition


Wind Chill Definition


Weather Definition


TIME
00:00 Legend Double Dagger -11.8 -14.3 81 25 24 6.4 99.99   -21 Snow
01:00 Legend Double Dagger -11.5 -14.6 78 25 28 19.3 99.94   -21 Snow
02:00 Legend Double Dagger -11.6 -14.8 77 25 34 24.1 99.94   -22 Snow
03:00 Legend Double Dagger -11.6 -14.9 76 25 28 24.1 99.94   -21 Snow
04:00 Legend Double Dagger -11.7 -15.0 76 24 30 24.1 99.94   -22 Snow
05:00 Legend Double Dagger -12.0 -15.3 77 24 35 24.1 99.92   -23 Snow
06:00 Legend Double Dagger -13.1 -16.3 77 24 32 24.1 99.93   -24 Snow
07:00 Legend Double Dagger -14.0 -17.2 77 24 34 24.1 99.91   -25 Blowing Snow
08:00 Legend Double Dagger -14.5 -17.4 79 24 33 24.1 99.84   -26 Blowing Snow
09:00 Legend Double Dagger -13.8 -16.5 80 24 32 24.1 99.77   -25 Blowing Snow
10:00 Legend Double Dagger -12.0 -14.9 79 24 35 19.3 99.70   -23 Blowing Snow
11:00 Legend Double Dagger -11.1 -14.3 77 24 42 19.3 99.68   -22 Blowing Snow
12:00 Legend Double Dagger -10.6 -14.2 75 24 45 19.3 99.56   -22 Snow,Blowing Snow
13:00 Legend Double Dagger -9.4 -13.7 71 25 44 24.1 99.46   -20 Blowing Snow
14:00 Legend Double Dagger -9.1 -13.6 70 24 48 24.1 99.40   -20 Blowing Snow
15:00 Legend Double Dagger -9.1 -13.3 72 24 41 24.1 99.41   -20 Blowing Snow
16:00 Legend Double Dagger -8.7 -13.0 71 23 35 24.1 99.37   -18 Blowing Snow
17:00 Legend Double Dagger -9.3 -12.8 76 23 41 24.1 99.34   -20 Blowing Snow
18:00 Legend Double Dagger -9.6 -12.5 80 24 34 24.1 99.36   -20 Blowing Snow
19:00 Legend Double Dagger -9.8 -12.9 79 23 35 24.1 99.37   -20 Mostly Cloudy
20:00 Legend Double Dagger -10.2 -13.1 80 23 27 24.1 99.34   -19 Blowing Snow
21:00 Legend Double Dagger -10.6 -13.2 81 24 26 24.1 99.28   -20 Blowing Snow
22:00 Legend Double Dagger -11.2 -13.7 82 24 25 24.1 99.24   -20 Blowing Snow
23:00 Legend Double Dagger -12.1 -14.7 81 24 15 24.1 99.23   -19 Blowing Snow

Notes on Data Quality.

Legend

  • E = Estimated
  • M = Missing
  • NA = Not Available
  • ‡ = Partner data that is not subject to review by the National Climate Archives
Date modified: